Regional Weather Roundup
Issued by NWS Boston, MA

Home | Current Version | Previous Version | Text Only | Print | Product List | Glossary On
Versions: 1 2 3 4 5 6 7 8 9 10 11 12 13 14 15 16 17 18 19 20 21 22 23 24 25 26 27 28 29 30 31 32 33 34 35 36 37 38 39 40 41 42 43 44 45 46 47 48 49 50
000
ASUS41 KBOX 102010
RWRBOX

REGIONAL WEATHER ROUNDUP
NATIONAL WEATHER SERVICE TAUNTON MA
300 PM EST WED FEB 10 2016

NOTE:  "FAIR" INDICATES FEW OR NO CLOUDS BELOW 12,000 FEET WITH NO
SIGNIFICANT WEATHER AND/OR OBSTRUCTIONS TO VISIBILITY.  THE FOLLOWING
OBSERVATION LOCATIONS DO NOT REPORT PRESENT WEATHER...PROVINCETOWN...
SMITHFIELD...BLOCK ISLAND...KEENE...AND OXFORD.

MAZALL-102100-
EASTERN MASSACHUSETTS

CITY           SKY/WX    TMP DP  RH WIND       PRES   REMARKS
BOSTON         FLURRIES  34  29  82 S6        29.54S WCI  29
BEVERLY        CLOUDY    35  26  69 SW7       29.53S WCI  29
LAWRENCE       LGT SNOW  33  28  81 W5        29.55S WCI  29
BEDFORD        LGT SNOW  34  28  79 W5        29.53S WCI  30
BLUE HILL        N/A     32  28  85 SW6       29.51S WCI  26
NORWOOD        LGT SNOW  35  29  78 CALM      29.54S FOG
MARSHFIELD       N/A     34  32  93 S6        29.57R WCI  29
PLYMOUTH       CLOUDY    34  29  82 VRB5      29.55S WCI  30
TAUNTON        CLOUDY    37  29  72 S5        29.55R
NEW BEDFORD    LGT SNOW  34  31  88 S5        29.55S FOG     WCI  30
$$

MAZALL-102100-
CAPE COD AND THE ISLANDS

CITY           SKY/WX    TMP DP  RH WIND       PRES   REMARKS
FALMOUTH       FLURRIES  34  28  80 CALM      29.55S
HYANNIS        CLOUDY    34  28  79 SW5       29.54S WCI  30
CHATHAM        CLOUDY    34  30  85 CALM      29.56S
PROVINCETOWN   LGT RAIN  34  28  79 CALM      29.56S
NANTUCKET      CLOUDY    36  31  82 N8        29.56R WCI  30
MARTHAS VNYRD  CLOUDY    35  31  85 S3        29.55S
$$

MAZALL-102100-
CENTRAL AND WESTERN MASSACHUSETTS

CITY           SKY/WX    TMP DP  RH WIND       PRES   REMARKS
WORCESTER      CLOUDY    31  25  78 W9        29.50R WCI  23
FITCHBURG      CLOUDY    35  25  66 SW3       29.53S
ORANGE         CLOUDY    32  29  88 S3        29.52S
SPRINGFIELD    CLOUDY    33  29  85 S6        29.53S WCI  27
WESTFIELD      CLOUDY    33  29  85 S5        29.54S WCI  29
NORTH ADAMS    CLOUDY    34  21  59 W9        29.52R WCI  27
PITTSFIELD     FLURRIES  31  22  69 W9        29.50R WCI  23
$$

RIZALL-102100-
RHODE ISLAND

CITY           SKY/WX    TMP DP  RH WIND       PRES   REMARKS
PROVIDENCE     LGT SNOW  33  31  92 CALM      29.56S FOG
NEWPORT        LGT SNOW  33  31  92 SE5       29.55S FOG     WCI  29
BLOCK ISLAND   CLOUDY    36  32  87 W9        29.55S WCI  29
SMITHFIELD     CLOUDY    34  27  75 W5        29.53R WCI  30
WESTERLY       CLOUDY    36  31  82 W3        29.57R
$$

CTZALL-102100-
CONNECTICUT

CITY           SKY/WX    TMP DP  RH WIND       PRES   REMARKS
BRADLEY INTL   CLOUDY    34  29  82 CALM      29.55R
HARTFORD       CLOUDY    37  30  75 S5        29.57R
BRIDGEPORT     CLOUDY    40  23  50 W9        29.58R
DANBURY        CLOUDY    37  16  42 W13       29.58R WCI  29
GROTON         CLOUDY    36  32  85 W8        29.57R WCI  30
NEW HAVEN      CLOUDY    36  28  73 S6        29.57S WCI  31
CHESTER        CLOUDY    36  30  80 W5        29.56S WCI  32
MERIDEN        CLOUDY    39  25  57 VRB3      29.57R
WILLIMANTIC    CLOUDY    36  27  69 W3        29.56R
$$

MEZ002-015-021-024-NHZ003-005-008-011-012-014-VTZ005-008-102100-
NORTHERN NEW ENGLAND

CITY           SKY/WX    TMP DP  RH WIND       PRES   REMARKS
PORTLAND ME    PTSUNNY   34  27  75 S6        29.53S WCI  29
BANGOR ME      PTSUNNY   31  22  69 S9        29.53S WCI  23
CONCORD NH     CLOUDY    34  26  72 CALM      29.52S
MANCHESTER NH  CLOUDY    32  27  81 SE3       29.52S
NASHUA NH      LGT RAIN  34  28  80 CALM      29.54R
PORTSMOUTH NH  CLOUDY    34  25  71 W6        29.52S WCI  28
JAFFREY NH     LGT SNOW  31  27  85 SW6       29.50R FOG     WCI  25
KEENE NH       MOSUNNY   34  25  69 CALM      29.52S
BURLINGTON VT  LGT SNOW  29  24  82 NW8       29.47R WCI  21
MT. WASHINGTON SNOW      10  10 100 W22         N/A  VSB 0   WCI  -9
$$

NYZ052-076-102100-
EASTERN NEW YORK

CITY           SKY/WX    TMP DP  RH WIND       PRES   REMARKS
ALBANY         CLOUDY    35  23  61 NW9       29.56S WCI  28
NEW YORK CITY  CLOUDY    39  20  46 W16       29.62R WCI  30
$$

ANZALL-102100-
MARINE OBSERVATIONS

STATION/POSITION TIME  TEMP    WIND        PRES    VSBY  WAVE
                       AIR SEA DIR/SP/G                  HT/PER
                 (UTC) (F)     (DEG/KT/KT) (MB)    (MI)  (FT/S)
BOSTON BUOY      1950   34 41  200/  4/  6 1000.6R         4/11
BUZZARDS BAY     1900          110/  6/  7 1001.1F
NANTUCKET SOUND  1950   35 42   CALM  /  2 1000.5S         1/13
MASS BAY-STELLWA 1904   32 41  230/ 10/ 12   N/A    1 7/8  4/10
ISLE OF SHOALS   2000   33     220/  7/  7  999.7R
S OF BLOCK IS    NOT AVBL
$$

......................KEY.........................
  SKY/WX - SKY CONDITION/PRESENT WEATHER
  TMP    - TEMPERATURE IN FAHRENHEIT
  DWPT   - DEWPOINT IN FAHRENHEIT
  RH     - RELATIVE HUMIDITY IN PERCENT
  WIND   - DIRECTION AND SPEED IN MPH
  PRES   - MEAN SEA LEVEL PRESSURE IN INCHES OF HG
  WCI    - WIND CHILL INDEX
  VSB    - VISIBILITY IN MILES
  HX     - HEAT INDEX
  TC     - TEMPERATURE IN CELSIUS
  VRB    - VARIABLE WIND DIRECTION
  N/A    - NOT AVAILABLE



USA.gov is the U.S. government's official web portal to all federal, state and local government web resources and services.